Jamestown, NY

5:02 AM EST on December 05, 2016 (GMT -0500)
Chautauqua County-Jamestown

Weather History for KJHW - October, 2013

Change the Weather History Date:

Thursday, October 24, 2013

  Actual Average Record
Temperature  
Mean Temperature 34 °F -  
Max Temperature 35 °F 58 °F 81 °F (1991)
Min Temperature 32 °F 31 °F 20 °F (1982)
Degree Days  
Heating Degree Days 32    
Moisture  
Dew Point 30 °F    
Average Humidity 87    
Maximum Humidity 93    
Minimum Humidity 81    
Precipitation  
Precipitation 0.22 in - - ()
Sea Level Pressure  
Sea Level Pressure 29.91 in    
Wind  
Wind Speed 9 mph (SW)    
Max Wind Speed 16 mph    
Max Gust Speed 26 mph    
Visibility 6 miles    
Events      
Averages and records for this station are not official NWS values.
T = Trace of Precipitation, MM = Missing Value Source: NWS Daily Summary

Daily Weather History Graph

Daily Weather History Graph

Search for Another Location

Airport or City:

Trip Planner

Search our weather history database for the weather conditions in past years. The results will help you decide how hot, cold, wet, or windy it might be!

Date:

Astronomy

Oct. 24, 2013 Rise Set
Actual Time 7:40 AM EDT 6:21 PM EDT
Civil Twilight 7:11 AM EDT 6:49 PM EDT
Nautical Twilight 6:39 AM EDT 7:22 PM EDT
Astronomical Twilight 6:06 AM EDT 7:54 PM EDT
Moon 10:41 PM EDT (10/24) 12:42 PM EDT (10/24)
Length of Visible Light 11h 37m
Length of Day
10h 40m
Waning Gibbous, 71% of the Moon is Illuminated
Oct 24
Waning Gibbous
Oct 26
Last Quarter
Nov 3
New
Nov 10
First Quarter
Nov 17
Full

Hourly Weather History & Observations

Time (EDT) Temp. Windchill Dew Point Humidity Pressure Visibility Wind Dir Wind Speed Gust Speed Precip Events Conditions
12:15 AM 33.8 °F 28.6 °F 30.2 °F 87% 29.82 in 3.0 mi SW 5.8 mph - N/A   Overcast
12:35 AM 33.8 °F 28.6 °F 28.4 °F 81% 29.81 in 10.0 mi SSW 5.8 mph - N/A   Mostly Cloudy
12:55 AM 33.8 °F 26.4 °F 28.4 °F 81% 29.82 in 10.0 mi SW 9.2 mph - N/A   Mostly Cloudy
1:15 AM 33.8 °F 27.0 °F 30.2 °F 87% 29.82 in 3.0 mi SSW 8.1 mph - N/A   Overcast
1:35 AM 33.8 °F 26.4 °F 30.2 °F 87% 29.81 in 3.0 mi SSW 9.2 mph - N/A   Overcast
1:55 AM 33.8 °F 27.0 °F 30.2 °F 87% 29.81 in 1.5 mi SW 8.1 mph - 0.01 in   Overcast
2:15 AM 33.8 °F 27.0 °F 30.2 °F 87% 29.82 in 1.5 mi SW 8.1 mph - N/A   Overcast
2:35 AM 33.8 °F 27.7 °F 30.2 °F 87% 29.82 in 1.8 mi SW 6.9 mph - 0.01 in   Overcast
2:55 AM 32.0 °F 24.2 °F 30.2 °F 93% 29.82 in 1.5 mi SW 9.2 mph - 0.02 in   Overcast
3:15 AM 32.0 °F 24.2 °F 30.2 °F 93% 29.81 in 9.0 mi SW 9.2 mph - N/A   Overcast
3:35 AM 33.8 °F 27.0 °F 30.2 °F 87% 29.81 in 3.0 mi SW 8.1 mph - N/A   Overcast
3:55 AM 32.0 °F 24.2 °F 30.2 °F 93% 29.82 in 1.5 mi WSW 9.2 mph - 0.02 in   Overcast
4:15 AM 32.0 °F 25.6 °F 30.2 °F 93% 29.81 in 2.0 mi SW 6.9 mph - N/A   Overcast
4:35 AM 32.0 °F 24.8 °F 30.2 °F 93% 29.82 in 10.0 mi SW 8.1 mph - N/A   Overcast
4:55 AM 32.0 °F 23.6 °F 30.2 °F 93% 29.83 in 1.5 mi WSW 10.4 mph - 0.02 in   Overcast
5:15 AM 32.0 °F 24.2 °F 30.2 °F 93% 29.83 in 0.8 mi SW 9.2 mph - 0.03 in   Overcast
5:35 AM 32.0 °F 24.8 °F 30.2 °F 93% 29.83 in 3.0 mi WSW 8.1 mph - 0.03 in   Overcast
5:55 AM 32.0 °F 25.6 °F 30.2 °F 93% 29.83 in 2.0 mi SW 6.9 mph - 0.05 in   Overcast
6:15 AM 32.0 °F 25.6 °F 30.2 °F 93% 29.84 in 3.0 mi SW 6.9 mph - N/A   Overcast
6:35 AM 32.0 °F 24.2 °F 30.2 °F 93% 29.84 in 10.0 mi WSW 9.2 mph - N/A   Overcast
6:55 AM 32.0 °F 24.8 °F 30.2 °F 93% 29.84 in 10.0 mi WSW 8.1 mph - N/A   Overcast
7:15 AM 33.8 °F 25.8 °F 30.2 °F 87% 29.85 in 10.0 mi WSW 10.4 mph - N/A   Overcast
7:35 AM 33.8 °F 25.8 °F 30.2 °F 87% 29.85 in 10.0 mi WSW 10.4 mph - N/A   Overcast
7:55 AM 33.8 °F 24.3 °F 30.2 °F 87% 29.87 in 4.0 mi West 13.8 mph 26.5 mph N/A   Overcast
8:15 AM 32.0 °F 24.8 °F 30.2 °F 93% 29.87 in 2.0 mi WSW 8.1 mph - N/A   Overcast
8:35 AM 32.0 °F 25.6 °F 30.2 °F 93% 29.87 in 9.0 mi SSW 6.9 mph - N/A   Overcast
8:55 AM 32.0 °F 23.0 °F 30.2 °F 93% 29.88 in 10.0 mi SW 11.5 mph 18.4 mph N/A   Overcast
9:15 AM 32.0 °F 22.1 °F 30.2 °F 93% 29.89 in 1.2 mi WSW 13.8 mph - N/A   Overcast
9:35 AM 32.0 °F 22.5 °F 30.2 °F 93% 29.89 in 4.0 mi WSW 12.7 mph - N/A   Overcast
9:55 AM 32.0 °F 24.2 °F 30.2 °F 93% 29.89 in 5.0 mi SW 9.2 mph - N/A   Overcast
10:15 AM 32.0 °F 23.6 °F 28.4 °F 87% 29.89 in 9.0 mi SW 10.4 mph - N/A   Overcast
10:35 AM 33.8 °F 25.8 °F 30.2 °F 87% 29.90 in 10.0 mi SW 10.4 mph 16.1 mph N/A   Overcast
10:55 AM 33.8 °F 25.3 °F 30.2 °F 87% 29.90 in 9.0 mi SW 11.5 mph 17.3 mph N/A   Overcast
11:15 AM 33.8 °F 26.4 °F 30.2 °F 87% 29.91 in 3.0 mi SW 9.2 mph 17.3 mph N/A   Overcast
11:35 AM 33.8 °F 25.8 °F 30.2 °F 87% 29.91 in 7.0 mi WSW 10.4 mph - N/A   Overcast
11:55 AM 33.8 °F 26.4 °F 30.2 °F 87% 29.91 in 3.0 mi SW 9.2 mph 16.1 mph N/A   Overcast
12:15 PM 33.8 °F 25.8 °F 30.2 °F 87% 29.91 in 0.8 mi SW 10.4 mph - 0.02 in   Overcast
12:35 PM 33.8 °F 26.4 °F 30.2 °F 87% 29.92 in 0.5 mi SW 9.2 mph - 0.03 in   Overcast
12:55 PM 33.8 °F 27.0 °F 30.2 °F 87% 29.91 in 10.0 mi SW 8.1 mph - 0.03 in   Overcast
1:15 PM 33.8 °F 25.8 °F 30.2 °F 87% 29.92 in 10.0 mi SW 10.4 mph 16.1 mph N/A   Overcast
1:35 PM 33.8 °F 25.8 °F 30.2 °F 87% 29.91 in 5.0 mi SW 10.4 mph - N/A   Overcast
1:55 PM 33.8 °F 24.8 °F 32.0 °F 93% 29.91 in 10.0 mi SW 12.7 mph - N/A   Overcast
2:15 PM 33.8 °F 25.3 °F 30.2 °F 87% 29.92 in 10.0 mi SW 11.5 mph 18.4 mph N/A   Overcast
2:35 PM 33.8 °F 24.3 °F 30.2 °F 87% 29.92 in 10.0 mi SW 13.8 mph 20.7 mph N/A   Overcast
2:55 PM 35.6 °F 27.1 °F 30.2 °F 81% 29.92 in 10.0 mi WSW 12.7 mph - N/A   Overcast
3:15 PM 35.6 °F 25.9 °F 30.2 °F 81% 29.92 in 10.0 mi SW 16.1 mph 19.6 mph N/A   Overcast
3:35 PM 35.6 °F 25.9 °F 30.2 °F 81% 29.93 in 10.0 mi SW 16.1 mph 20.7 mph N/A   Overcast
3:55 PM 35.6 °F 27.1 °F 30.2 °F 81% 29.94 in 10.0 mi SW 12.7 mph 19.6 mph N/A   Overcast
4:15 PM 35.6 °F 25.9 °F 30.2 °F 81% 29.94 in 10.0 mi WSW 16.1 mph 20.7 mph N/A   Overcast
4:35 PM 35.6 °F 28.0 °F 30.2 °F 81% 29.94 in 10.0 mi SW 10.4 mph 19.6 mph N/A   Overcast
4:55 PM 35.6 °F 27.5 °F 30.2 °F 81% 29.95 in 10.0 mi WSW 11.5 mph - N/A   Overcast
5:15 PM 35.6 °F 27.5 °F 30.2 °F 81% 29.95 in 9.0 mi WSW 11.5 mph - N/A   Overcast
5:35 PM 35.6 °F 25.9 °F 30.2 °F 81% 29.95 in 10.0 mi SW 16.1 mph - N/A   Overcast
5:55 PM 35.6 °F 26.6 °F 30.2 °F 81% 29.95 in 10.0 mi SW 13.8 mph - N/A   Mostly Cloudy
6:15 PM 35.6 °F 27.1 °F 30.2 °F 81% 29.96 in 10.0 mi WSW 12.7 mph - N/A   Overcast
6:35 PM 35.6 °F 27.1 °F 30.2 °F 81% 29.96 in 10.0 mi SW 12.7 mph - N/A   Overcast
6:55 PM 35.6 °F 27.5 °F 30.2 °F 81% 29.97 in 10.0 mi SW 11.5 mph - N/A   Mostly Cloudy
7:15 PM 35.6 °F 28.0 °F 30.2 °F 81% 29.98 in 10.0 mi WSW 10.4 mph 17.3 mph N/A   Overcast
7:35 PM 35.6 °F 28.6 °F 30.2 °F 81% 29.99 in 10.0 mi West 9.2 mph - N/A   Overcast
7:55 PM 33.8 °F 25.3 °F 30.2 °F 87% 29.99 in 4.0 mi West 11.5 mph 21.9 mph 0.02 in   Overcast
8:15 PM 33.8 °F 24.8 °F 30.2 °F 87% 29.99 in 3.0 mi WSW 12.7 mph - 0.01 in   Overcast
8:35 PM 33.8 °F 25.8 °F 30.2 °F 87% 30.00 in 3.0 mi WSW 10.4 mph - 0.02 in   Overcast
8:55 PM 33.8 °F 26.4 °F 30.2 °F 87% 30.00 in 5.0 mi WSW 9.2 mph - 0.02 in   Overcast
9:15 PM 33.8 °F 27.7 °F 30.2 °F 87% 30.01 in 2.5 mi West 6.9 mph - 0.01 in   Overcast
9:35 PM 33.8 °F 25.8 °F 30.2 °F 87% 30.01 in 8.0 mi WSW 10.4 mph - 0.01 in   Overcast
9:55 PM 33.8 °F 26.4 °F 30.2 °F 87% 30.01 in 5.0 mi WSW 9.2 mph - 0.02 in   Overcast
10:15 PM 33.8 °F 25.8 °F 30.2 °F 87% 30.02 in 4.0 mi WSW 10.4 mph - N/A   Overcast
10:35 PM 33.8 °F 27.0 °F 30.2 °F 87% 30.02 in 5.0 mi WSW 8.1 mph - N/A   Overcast
10:55 PM 33.8 °F 26.4 °F 30.2 °F 87% 30.02 in 5.0 mi West 9.2 mph - 0.01 in   Overcast
11:15 PM 33.8 °F 27.0 °F 30.2 °F 87% 30.02 in 7.0 mi WSW 8.1 mph - N/A   Overcast
11:35 PM 33.8 °F 27.0 °F 32.0 °F 93% 30.02 in 7.0 mi WSW 8.1 mph - N/A   Overcast
11:55 PM 33.8 °F 27.7 °F 32.0 °F 93% 30.03 in 9.0 mi SW 6.9 mph - N/A   Overcast